Time,TemperatureF,DewpointF,PressureIn,WindDirection,WindDirectionDegrees,WindSpeedMPH,WindSpeedGustMPH,Humidity,HourlyPrecipIn,Conditions,Clouds,dailyrainin,SoftwareType,DateUTC
2013-03-09 00:02:00,39.7,36.0,29.72,West,261,3.0,14.0,86,0.05,,,0.01,weatherlink.com 1.10,2013-03-09 07:02:00,
2013-03-09 00:17:00,39.7,36.0,29.72,West,262,3.0,5.0,87,0.06,,,0.02,weatherlink.com 1.10,2013-03-09 07:17:00,
2013-03-09 00:32:00,39.8,36.0,29.73,WSW,249,2.0,4.0,87,0.05,,,0.02,weatherlink.com 1.10,2013-03-09 07:32:00,
2013-03-09 00:47:00,39.9,36.0,29.75,West,261,5.0,9.0,87,0.03,,,0.02,weatherlink.com 1.10,2013-03-09 07:47:00,
2013-03-09 01:02:00,39.9,35.0,29.75,WSW,256,6.0,11.0,82,0.01,,,0.02,weatherlink.com 1.10,2013-03-09 08:02:00,
2013-03-09 01:18:00,39.5,34.0,29.76,WSW,256,5.0,12.0,82,0.00,,,0.02,weatherlink.com 1.10,2013-03-09 08:18:00,
2013-03-09 01:33:00,38.6,34.0,29.74,SW,231,0.0,6.0,84,0.00,,,0.02,weatherlink.com 1.10,2013-03-09 08:33:00,
2013-03-09 01:48:00,38.6,35.0,29.73,SW,231,1.0,2.0,85,0.00,,,0.02,weatherlink.com 1.10,2013-03-09 08:48:00,
2013-03-09 02:03:00,38.6,35.0,29.74,SW,227,2.0,5.0,85,0.00,,,0.02,weatherlink.com 1.10,2013-03-09 09:03:00,
2013-03-09 02:18:00,38.6,35.0,29.74,SW,227,0.0,3.0,86,0.00,,,0.02,weatherlink.com 1.10,2013-03-09 09:18:00,
2013-03-09 02:33:00,38.7,35.0,29.73,SSW,200,6.0,8.0,87,0.00,,,0.02,weatherlink.com 1.10,2013-03-09 09:33:00,
2013-03-09 02:48:00,38.9,35.0,29.73,SSW,197,7.0,16.0,85,0.00,,,0.02,weatherlink.com 1.10,2013-03-09 09:48:00,
2013-03-09 03:03:00,39.2,34.0,29.72,South,191,7.0,16.0,81,0.00,,,0.02,weatherlink.com 1.10,2013-03-09 10:03:00,
2013-03-09 03:18:00,38.3,31.0,29.72,South,189,12.0,18.0,76,0.01,,,0.03,weatherlink.com 1.10,2013-03-09 10:18:00,
2013-03-09 03:33:00,38.0,28.0,29.73,SSW,209,11.0,22.0,67,0.01,,,0.03,weatherlink.com 1.10,2013-03-09 10:33:00,
2013-03-09 03:48:00,37.4,27.0,29.73,WSW,240,18.0,21.0,66,0.01,,,0.03,weatherlink.com 1.10,2013-03-09 10:48:00,
2013-03-09 04:03:00,37.4,27.0,29.73,SSW,202,18.0,22.0,66,0.01,,,0.03,weatherlink.com 1.10,2013-03-09 11:03:00,
2013-03-09 04:18:00,37.4,26.0,29.73,SW,215,12.0,22.0,63,0.00,,,0.03,weatherlink.com 1.10,2013-03-09 11:18:00,
2013-03-09 04:33:00,36.7,26.0,29.75,SW,234,5.0,19.0,65,0.00,,,0.03,weatherlink.com 1.10,2013-03-09 11:33:00,
2013-03-09 04:48:00,36.2,26.0,29.75,South,173,8.0,12.0,66,0.00,,,0.03,weatherlink.com 1.10,2013-03-09 11:48:00,
2013-03-09 05:03:00,35.7,25.0,29.76,SSW,211,11.0,17.0,65,0.00,,,0.03,weatherlink.com 1.10,2013-03-09 12:03:00,
2013-03-09 05:18:00,35.7,25.0,29.77,WSW,242,6.0,14.0,65,0.00,,,0.03,weatherlink.com 1.10,2013-03-09 12:18:00,
2013-03-09 05:33:00,35.2,26.0,29.78,WSW,246,3.0,8.0,68,0.00,,,0.03,weatherlink.com 1.10,2013-03-09 12:33:00,
2013-03-09 05:48:00,35.0,26.0,29.79,WSW,240,3.0,4.0,71,0.00,,,0.03,weatherlink.com 1.10,2013-03-09 12:48:00,
2013-03-09 06:03:00,35.0,26.0,29.79,SW,225,2.0,2.0,70,0.00,,,0.03,weatherlink.com 1.10,2013-03-09 13:03:00,
2013-03-09 06:18:00,35.1,25.0,29.80,NW,313,5.0,7.0,66,0.00,,,0.03,weatherlink.com 1.10,2013-03-09 13:18:00,
2013-03-09 06:33:00,35.1,22.0,29.80,NW,307,0.0,3.0,59,0.00,,,0.03,weatherlink.com 1.10,2013-03-09 13:33:00,
2013-03-09 06:48:00,34.8,22.0,29.80,WSW,254,2.0,6.0,59,0.00,,,0.03,weatherlink.com 1.10,2013-03-09 13:48:00,
2013-03-09 07:03:00,35.2,22.0,29.80,West,263,3.0,8.0,59,0.00,,,0.03,weatherlink.com 1.10,2013-03-09 14:03:00,
2013-03-09 07:18:00,35.7,22.0,29.80,West,269,5.0,9.0,59,0.00,,,0.03,weatherlink.com 1.10,2013-03-09 14:18:00,
2013-03-09 07:33:00,36.3,21.0,29.80,WNW,292,6.0,15.0,55,0.00,,,0.03,weatherlink.com 1.10,2013-03-09 14:33:00,
2013-03-09 07:48:00,36.3,21.0,29.80,West,281,7.0,13.0,54,0.00,,,0.03,weatherlink.com 1.10,2013-03-09 14:48:00,
2013-03-09 08:03:00,35.9,21.0,29.80,West,266,6.0,11.0,56,0.00,,,0.03,weatherlink.com 1.10,2013-03-09 15:03:00,
2013-03-09 08:18:00,35.7,22.0,29.81,WSW,252,5.0,8.0,57,0.00,,,0.03,weatherlink.com 1.10,2013-03-09 15:18:00,
2013-03-09 08:33:00,36.8,23.0,29.80,WSW,242,4.0,11.0,57,0.00,,,0.03,weatherlink.com 1.10,2013-03-09 15:33:00,
2013-03-09 08:49:00,38.0,23.0,29.80,SW,236,9.0,16.0,55,0.00,,,0.03,weatherlink.com 1.10,2013-03-09 15:49:00,
2013-03-09 09:04:00,37.8,23.0,29.81,SW,221,12.0,16.0,55,0.00,,,0.03,weatherlink.com 1.10,2013-03-09 16:04:00,
2013-03-09 09:19:00,38.1,23.0,29.81,SSW,211,15.0,18.0,55,0.00,,,0.03,weatherlink.com 1.10,2013-03-09 16:19:00,
2013-03-09 09:34:00,38.5,23.0,29.82,SW,227,9.0,17.0,53,0.00,,,0.03,weatherlink.com 1.10,2013-03-09 16:34:00,
2013-03-09 09:49:00,38.8,22.0,29.82,SW,232,9.0,15.0,52,0.00,,,0.03,weatherlink.com 1.10,2013-03-09 16:49:00,
2013-03-09 10:04:00,38.9,22.0,29.81,WSW,253,13.0,14.0,52,0.00,,,0.03,weatherlink.com 1.10,2013-03-09 17:04:00,
2013-03-09 10:19:00,38.6,22.0,29.81,West,259,8.0,18.0,51,0.00,,,0.03,weatherlink.com 1.10,2013-03-09 17:19:00,
2013-03-09 10:34:00,39.3,21.0,29.81,SW,228,11.0,16.0,49,0.00,,,0.03,weatherlink.com 1.10,2013-03-09 17:34:00,
2013-03-09 10:49:00,39.2,21.0,29.81,WSW,238,5.0,14.0,48,0.00,,,0.03,weatherlink.com 1.10,2013-03-09 17:49:00,
2013-03-09 11:04:00,39.5,21.0,29.80,SW,236,9.0,19.0,48,0.00,,,0.03,weatherlink.com 1.10,2013-03-09 18:04:00,
2013-03-09 11:19:00,40.2,22.0,29.80,SW,236,9.0,20.0,48,0.00,,,0.03,weatherlink.com 1.10,2013-03-09 18:19:00,
2013-03-09 11:34:00,40.6,22.0,29.80,SW,227,10.0,21.0,47,0.00,,,0.03,weatherlink.com 1.10,2013-03-09 18:34:00,
2013-03-09 11:49:00,41.0,21.0,29.80,WSW,247,9.0,17.0,45,0.00,,,0.03,weatherlink.com 1.10,2013-03-09 18:49:00,
2013-03-09 12:04:00,41.5,20.0,29.79,West,259,18.0,20.0,43,0.00,,,0.03,weatherlink.com 1.10,2013-03-09 19:04:00,
2013-03-09 12:19:00,41.1,23.0,29.80,WNW,292,3.0,11.0,48,0.00,,,0.03,weatherlink.com 1.10,2013-03-09 19:19:00,
2013-03-09 12:34:00,41.3,22.0,29.79,WSW,251,9.0,12.0,46,0.00,,,0.03,weatherlink.com 1.10,2013-03-09 19:34:00,
2013-03-09 12:49:00,42.0,20.0,29.79,WSW,253,16.0,20.0,42,0.00,,,0.03,weatherlink.com 1.10,2013-03-09 19:49:00,
2013-03-09 13:04:00,42.7,19.0,29.78,WNW,294,10.0,18.0,39,0.00,,,0.03,weatherlink.com 1.10,2013-03-09 20:04:00,
2013-03-09 13:19:00,41.1,23.0,29.78,West,267,10.0,24.0,48,0.00,,,0.03,weatherlink.com 1.10,2013-03-09 20:19:00,
2013-03-09 13:34:00,42.5,22.0,29.77,WSW,254,6.0,12.0,44,0.00,,,0.03,weatherlink.com 1.10,2013-03-09 20:34:00,
2013-03-09 13:49:00,43.6,22.0,29.77,WSW,238,11.0,21.0,42,0.00,,,0.03,weatherlink.com 1.10,2013-03-09 20:49:00,
2013-03-09 14:04:00,41.6,24.0,29.78,West,266,12.0,25.0,50,0.00,,,0.03,weatherlink.com 1.10,2013-03-09 21:04:00,
2013-03-09 14:19:00,44.2,20.0,29.77,West,267,9.0,20.0,38,0.00,,,0.03,weatherlink.com 1.10,2013-03-09 21:19:00,
2013-03-09 14:34:00,42.6,21.0,29.78,West,264,8.0,25.0,42,0.00,,,0.03,weatherlink.com 1.10,2013-03-09 21:34:00,
2013-03-09 14:49:00,44.3,20.0,29.78,West,267,12.0,18.0,38,0.00,,,0.03,weatherlink.com 1.10,2013-03-09 21:49:00,
2013-03-09 15:04:00,44.9,22.0,29.78,SW,236,19.0,22.0,41,0.00,,,0.03,weatherlink.com 1.10,2013-03-09 22:04:00,
2013-03-09 15:19:00,45.1,18.0,29.79,WSW,257,10.0,18.0,34,0.00,,,0.03,weatherlink.com 1.10,2013-03-09 22:19:00,
2013-03-09 15:34:00,45.0,21.0,29.79,WSW,248,10.0,16.0,39,0.00,,,0.03,weatherlink.com 1.10,2013-03-09 22:34:00,
2013-03-09 15:49:00,44.3,21.0,29.79,SW,231,9.0,17.0,40,0.00,,,0.03,weatherlink.com 1.10,2013-03-09 22:49:00,
2013-03-09 16:04:00,44.5,19.0,29.80,West,266,6.0,17.0,36,0.00,,,0.03,weatherlink.com 1.10,2013-03-09 23:04:00,
2013-03-09 16:19:00,43.0,24.0,29.82,WNW,302,22.0,24.0,47,0.00,,,0.03,weatherlink.com 1.10,2013-03-09 23:19:00,
2013-03-09 16:34:00,41.9,26.0,29.82,NNW,334,11.0,22.0,53,0.00,,,0.03,weatherlink.com 1.10,2013-03-09 23:34:00,
2013-03-09 16:49:00,41.4,27.0,29.83,NW,305,9.0,22.0,57,0.00,,,0.03,weatherlink.com 1.10,2013-03-09 23:49:00,
2013-03-09 17:04:00,41.7,28.0,29.84,NNW,348,6.0,20.0,58,0.00,,,0.03,weatherlink.com 1.10,2013-03-10 00:04:00,
2013-03-09 17:19:00,41.5,27.0,29.85,NNW,348,11.0,18.0,56,0.00,,,0.03,weatherlink.com 1.10,2013-03-10 00:19:00,
2013-03-09 17:34:00,40.9,27.0,29.86,NNW,332,8.0,18.0,58,0.00,,,0.03,weatherlink.com 1.10,2013-03-10 00:34:00,
2013-03-09 17:49:00,40.9,28.0,29.87,NNW,345,10.0,15.0,60,0.00,,,0.03,weatherlink.com 1.10,2013-03-10 00:49:00,
2013-03-09 18:04:00,40.6,28.0,29.88,NW,315,10.0,18.0,60,0.00,,,0.03,weatherlink.com 1.10,2013-03-10 01:04:00,
2013-03-09 18:19:00,40.1,28.0,29.90,WNW,302,9.0,22.0,62,0.00,,,0.03,weatherlink.com 1.10,2013-03-10 01:19:00,
2013-03-09 18:34:00,39.8,28.0,29.90,WNW,300,2.0,11.0,62,0.00,,,0.03,weatherlink.com 1.10,2013-03-10 01:34:00,
2013-03-09 18:49:00,39.6,28.0,29.91,West,279,6.0,10.0,63,0.00,,,0.03,weatherlink.com 1.10,2013-03-10 01:49:00,
2013-03-09 19:05:00,38.8,28.0,29.91,West,276,3.0,8.0,66,0.00,,,0.03,weatherlink.com 1.10,2013-03-10 02:05:00,
2013-03-09 19:20:00,38.0,28.0,29.92,West,264,2.0,6.0,68,0.00,,,0.03,weatherlink.com 1.10,2013-03-10 02:20:00,
2013-03-09 19:35:00,37.7,28.0,29.93,West,264,1.0,3.0,69,0.00,,,0.03,weatherlink.com 1.10,2013-03-10 02:35:00,
2013-03-09 19:50:00,37.6,29.0,29.93,West,264,0.0,2.0,70,0.00,,,0.03,weatherlink.com 1.10,2013-03-10 02:50:00,
2013-03-09 20:05:00,37.3,29.0,29.94,WSW,248,3.0,5.0,71,0.00,,,0.03,weatherlink.com 1.10,2013-03-10 03:05:00,
2013-03-09 20:20:00,36.6,28.0,29.95,WSW,246,3.0,4.0,72,0.00,,,0.03,weatherlink.com 1.10,2013-03-10 03:20:00,
2013-03-09 20:35:00,36.3,28.0,29.95,WSW,246,0.0,5.0,73,0.00,,,0.03,weatherlink.com 1.10,2013-03-10 03:35:00,
2013-03-09 20:50:00,36.5,29.0,29.96,SSW,196,4.0,6.0,73,0.00,,,0.03,weatherlink.com 1.10,2013-03-10 03:50:00,
2013-03-09 21:05:00,36.4,29.0,29.96,SSW,192,3.0,3.0,73,0.00,,,0.03,weatherlink.com 1.10,2013-03-10 04:05:00,
2013-03-09 21:20:00,36.1,29.0,29.97,South,176,3.0,4.0,74,0.00,,,0.03,weatherlink.com 1.10,2013-03-10 04:20:00,
2013-03-09 21:35:00,35.7,29.0,29.98,South,180,3.0,7.0,75,0.00,,,0.03,weatherlink.com 1.10,2013-03-10 04:35:00,
2013-03-09 21:50:00,35.3,28.0,29.98,SSE,157,7.0,7.0,76,0.00,,,0.03,weatherlink.com 1.10,2013-03-10 04:50:00,
2013-03-09 22:05:00,35.6,28.0,29.99,South,184,5.0,7.0,75,0.00,,,0.03,weatherlink.com 1.10,2013-03-10 05:05:00,
2013-03-09 22:20:00,35.7,29.0,29.99,SSW,213,2.0,6.0,75,0.00,,,0.03,weatherlink.com 1.10,2013-03-10 05:20:00,
2013-03-09 22:35:00,35.4,29.0,29.99,SSW,198,6.0,6.0,76,0.00,,,0.03,weatherlink.com 1.10,2013-03-10 05:35:00,
2013-03-09 22:50:00,35.0,28.0,30.00,South,182,5.0,7.0,77,0.00,,,0.03,weatherlink.com 1.10,2013-03-10 05:50:00,
2013-03-09 23:05:00,34.7,28.0,30.00,South,183,2.0,6.0,77,0.00,,,0.03,weatherlink.com 1.10,2013-03-10 06:05:00,
2013-03-09 23:20:00,33.9,28.0,30.00,South,183,2.0,3.0,78,0.00,,,0.03,weatherlink.com 1.10,2013-03-10 06:20:00,
2013-03-09 23:35:00,32.8,27.0,30.00,SSW,205,2.0,5.0,79,0.00,,,0.03,weatherlink.com 1.10,2013-03-10 06:35:00,
2013-03-09 23:50:00,31.9,27.0,30.00,WSW,239,2.0,4.0,81,0.00,,,0.03,weatherlink.com 1.10,2013-03-10 06:50:00,